Fort Stewart, GA

8:10 PM EST on February 27, 2017 (GMT -0500)
Wright Army Air Field

Weather History for KLHW - February, 2014

Change the Weather History Date:

Sunday, February 23, 2014

  Actual Average Record
Temperature  
Mean Temperature 52 °F -  
Max Temperature 64 °F 68 °F 85 °F (1980)
Min Temperature 41 °F 45 °F 24 °F (1978)
Degree Days  
Heating Degree Days 12    
Growing Degree Days 2 (Base 50)    
Moisture  
Dew Point 55 °F    
Average Humidity 96    
Maximum Humidity 100    
Minimum Humidity 81    
Precipitation  
Precipitation 0.00 in - - ()
Sea Level Pressure  
Sea Level Pressure 30.04 in    
Wind  
Wind Speed 2 mph (SSW)    
Max Wind Speed 9 mph    
Max Gust Speed -    
Visibility 10 miles    
Events Rain    
Averages and records for this station are not official NWS values.
T = Trace of Precipitation, MM = Missing Value Source: NWS Daily Summary

Daily Weather History Graph

Daily Weather History Graph

Search for Another Location

Airport or City:

Trip Planner

Search our weather history database for the weather conditions in past years. The results will help you decide how hot, cold, wet, or windy it might be!

Date:

Astronomy

Feb. 23, 2014 Rise Set
Actual Time 7:00 AM EST 6:19 PM EST
Civil Twilight 6:35 AM EST 6:44 PM EST
Nautical Twilight 6:07 AM EST 7:12 PM EST
Astronomical Twilight 5:38 AM EST 7:40 PM EST
Moon 1:46 AM EST (2/23) 12:31 PM EST (2/23)
Length of Visible Light 12h 08m
Length of Day
11h 19m
Last Quarter, 39% of the Moon is Illuminated
Feb 23
Last Quarter
Mar 1
New
Mar 8
First Quarter
Mar 16
Full
Mar 23
Last Quarter

Hourly Weather History & Observations

Time (EST) Temp. Dew Point Humidity Pressure Visibility Wind Dir Wind Speed Gust Speed Precip Events Conditions
12:58 AM 43.9 °F 43.5 °F 99% 30.10 in 10.0 mi Calm Calm - N/A   Partly Cloudy
1:58 AM 43.7 °F 43.7 °F 100% 30.08 in 10.0 mi Calm Calm - N/A   Clear
2:58 AM 42.3 °F 42.3 °F 100% 30.07 in 10.0 mi Calm Calm - N/A   Clear
3:58 AM 41.9 °F 41.9 °F 100% 30.07 in 10.0 mi Calm Calm - N/A   Clear
4:58 AM 42.6 °F 42.6 °F 100% 30.08 in 10.0 mi Calm Calm - N/A   Overcast
5:18 AM 42.8 °F 42.8 °F 100% 30.07 in 9.0 mi Calm Calm - N/A   Mostly Cloudy
5:23 AM 42.8 °F 42.8 °F 100% 30.07 in 9.0 mi Calm Calm - N/A   Overcast
5:58 AM 44.2 °F 44.2 °F 100% 30.08 in 10.0 mi Calm Calm - N/A   Scattered Clouds
6:23 AM 42.8 °F 42.8 °F 100% 30.08 in 8.0 mi Calm Calm - N/A   Mostly Cloudy
6:28 AM 44.6 °F 44.6 °F 100% 30.08 in 8.0 mi Calm Calm - N/A   Mostly Cloudy
6:38 AM 44.6 °F 44.6 °F 100% 30.08 in 10.0 mi Calm Calm - N/A   Overcast
6:58 AM 45.1 °F 45.1 °F 100% 30.09 in 10.0 mi Calm Calm - N/A   Overcast
7:58 AM 47.5 °F 47.5 °F 100% 30.09 in 10.0 mi Calm Calm - N/A   Overcast
8:58 AM 52.2 °F 52.2 °F 100% 30.10 in 10.0 mi Calm Calm - N/A   Scattered Clouds
9:03 AM 53.6 °F 53.6 °F 100% 30.09 in 10.0 mi Calm Calm - N/A   Mostly Cloudy
9:58 AM 58.5 °F 55.4 °F 90% 30.10 in 10.0 mi Calm Calm - N/A   Mostly Cloudy
10:08 AM 59.0 °F 55.4 °F 88% 30.09 in 10.0 mi SSE 3.5 mph - N/A   Scattered Clouds
10:58 AM 61.3 °F 56.1 °F 83% 30.13 in 10.0 mi WSW 9.2 mph - N/A   Mostly Cloudy
11:53 AM 62.6 °F 57.2 °F 82% 30.11 in 10.0 mi SW 4.6 mph - N/A   Mostly Cloudy
11:58 AM 63.1 °F 57.4 °F 81% 30.11 in 10.0 mi Variable 3.5 mph - N/A   Scattered Clouds
12:38 PM 64.4 °F 59.0 °F 83% 30.07 in 10.0 mi SW 4.6 mph - N/A   Mostly Cloudy
12:58 PM 64.4 °F 60.8 °F 88% 30.07 in 10.0 mi Calm Calm - N/A   Overcast
1:03 PM 64.4 °F 60.8 °F 88% 30.05 in 10.0 mi NE 2.3 mph - N/A   Overcast
1:29 PM 64.4 °F 60.8 °F 88% 30.05 in 10.0 mi Calm Calm - N/A Rain Light Rain
1:58 PM 63.9 °F 62.2 °F 94% 30.04 in 10.0 mi ESE 3.5 mph - 0.00 in Rain Light Rain
2:07 PM 64.4 °F 62.6 °F 94% 30.02 in 10.0 mi SE 4.6 mph - N/A   Overcast
2:58 PM 63.9 °F 63.1 °F 97% 30.01 in 10.0 mi SSE 6.9 mph - 0.00 in   Partly Cloudy
3:58 PM 64.8 °F 63.9 °F 97% 30.02 in 10.0 mi SSW 4.6 mph - N/A   Partly Cloudy
4:58 PM 64.0 °F 62.6 °F 95% 30.01 in 10.0 mi SSW 4.6 mph - N/A   Scattered Clouds
5:02 PM 64.4 °F 62.6 °F 94% 30.00 in 10.0 mi SSW 4.6 mph - N/A Rain Light Rain
5:45 PM 62.6 °F 62.6 °F 100% 29.98 in 10.0 mi SSE 4.6 mph - N/A   Clear
5:58 PM 62.1 °F 62.1 °F 100% 29.98 in 10.0 mi SSE 4.6 mph - 0.00 in   Clear
6:58 PM 61.0 °F 61.0 °F 100% 29.99 in 10.0 mi WSW 4.6 mph - N/A   Scattered Clouds
7:08 PM 60.8 °F 60.8 °F 100% 29.98 in 10.0 mi SW 5.8 mph - N/A   Mostly Cloudy
7:13 PM 60.8 °F 60.8 °F 100% 29.98 in 10.0 mi SSW 4.6 mph - N/A   Mostly Cloudy
7:23 PM 60.8 °F 60.8 °F 100% 29.98 in 10.0 mi WSW 5.8 mph - N/A   Mostly Cloudy
7:53 PM 60.8 °F 60.8 °F 100% 29.98 in 10.0 mi SW 5.8 mph - N/A   Mostly Cloudy
7:58 PM 60.6 °F 60.6 °F 100% 29.99 in 10.0 mi SSW 4.6 mph - N/A   Scattered Clouds
8:58 PM 59.4 °F 59.4 °F 100% 29.99 in 10.0 mi NW 1.2 mph - N/A   Partly Cloudy
9:58 PM 58.3 °F 58.3 °F 100% 29.99 in 10.0 mi Calm Calm - N/A   Scattered Clouds
10:23 PM 57.2 °F 57.2 °F 100% 29.99 in 10.0 mi West 2.3 mph - N/A   Mostly Cloudy
10:33 PM 57.2 °F 57.2 °F 100% 29.98 in 10.0 mi West 2.3 mph - N/A   Mostly Cloudy
10:58 PM 58.6 °F 58.6 °F 100% 29.99 in 10.0 mi WSW 2.3 mph - N/A   Overcast
11:58 PM 59.0 °F 59.0 °F 100% 29.99 in 10.0 mi West 8.1 mph - N/A   Overcast